Location: Tierra del Sol
(32.6128°N, 116.3319°W)
Time: 06:03:35
(UTC-08:00)

Vanguard 2 Rocket - Visible Passes

Search period start: 17 December 2017 00:00
Search period end: 27 December 2017 00:00
Orbit: 556 x 3326 km, 32.9° (Epoch: 16 December)

Date Brightness Start Highest point End Pass type
(mag) Time Alt. Az. Time Alt. Az. Time Alt. Az.
17 Dec 10.7 01:20:10 13° SSE 01:20:10 13° SSE 01:21:30 10° SSE visible
17 Dec 10.6 03:25:58 11° SSW 03:25:58 11° SSW 03:27:33 10° SSW visible
17 Dec 8.7 17:02:28 10° SW 17:10:43 59° SSE 17:25:24 10° ENE visible
17 Dec 8.8 19:14:58 10° W 19:26:33 90° SE 19:31:30 56° E visible
17 Dec 9.7 21:29:17 10° W 21:37:18 45° W 21:37:18 45° W visible
18 Dec11.100:23:53SE00:23:53SE23:43:07WNWvisible
18 Dec 10.6 02:29:40 14° S 02:29:40 14° S 02:32:01 10° S visible
18 Dec 8.6 18:15:44 10° WSW 18:25:31 84° SSE 18:35:17 30° E visible
18 Dec 9.0 20:29:20 10° W 20:41:05 77° W 20:41:05 77° W visible
18 Dec 10.6 22:44:23 10° WNW 22:46:53 18° W 22:46:53 18° W visible
19 Dec 10.8 01:33:20 12° SSE 01:33:20 12° SSE 01:34:03 10° SSE visible
19 Dec 8.4 17:16:50 10° WSW 17:25:03 74° SSE 17:39:04 12° E visible
19 Dec 8.8 19:29:44 10° W 19:41:19 89° N 19:44:52 64° E visible
19 Dec 9.9 21:44:00 10° WNW 21:50:41 37° W 21:50:41 37° W visible
20 Dec11.100:36:55SSE00:36:55SSE23:56:29WNWvisible
20 Dec 8.6 18:30:26 10° W 18:40:14 90° N 18:48:41 35° E visible
20 Dec 9.1 20:44:04 10° W 20:54:30 67° W 20:54:30 67° W visible
20 Dec 10.7 22:59:14 10° W 23:00:18 13° W 23:00:18 13° W visible
21 Dec 8.3 17:31:25 10° WSW 17:39:39 85° S 17:52:33 15° E visible
21 Dec 8.8 19:44:29 10° W 19:56:04 88° S 19:58:21 73° ESE visible
21 Dec 10.1 21:58:45 10° WNW 22:04:10 31° W 22:04:10 31° W visible
22 Dec 8.6 18:45:11 10° W 18:55:00 89° N 19:02:15 40° E visible
22 Dec 9.3 20:58:47 10° W 21:08:04 57° W 21:08:04 57° W visible
23 Dec 8.3 17:46:08 10° W 17:54:23 89° N 18:06:12 18° E visible
23 Dec 8.8 19:59:12 10° W 20:10:45 81° SSW 20:12:01 77° SSE visible
23 Dec 10.2 22:13:40 10° W 22:17:50 24° W 22:17:50 24° W visible
24 Dec 8.6 18:59:55 10° W 19:09:44 87° S 19:16:02 44° ESE visible
24 Dec 9.5 21:13:34 10° W 21:21:51 47° WSW 21:21:51 47° WSW visible
25 Dec11.000:05:23SSE00:05:23SSE23:27:41Wvisible
25 Dec 8.3 18:00:53 10° W 18:09:09 89° N 18:20:07 21° E visible
25 Dec 8.9 20:13:56 10° W 20:25:21 70° SSW 20:25:57 69° S visible
25 Dec 10.4 22:28:54 10° W 22:31:47 18° W 22:31:47 18° W visible
26 Dec 8.0 17:02:01 10° W 17:08:57 88° N 17:21:48 10° E visible
26 Dec 8.6 19:14:39 10° W 19:24:25 78° SSW 19:30:08 46° ESE visible
26 Dec 9.7 21:28:32 10° W 21:35:58 38° WSW 21:35:58 38° WSW visible
